Weather History for Antigo, WI

Change the Weather History Date:

Sunday, November 25, 2012

  Actual Average Record
Temperature  
Mean Temperature 22 °F -  
Max Temperature 27 °F 33 °F 51 °F (1998)
Min Temperature 18 °F 17 °F -10 °F (1950)
Degree Days  
Heating Degree Days 42    
Moisture  
Dew Point 19 °F    
Average Humidity 83    
Maximum Humidity 96    
Minimum Humidity 67    
Precipitation  
Precipitation 0.02 in - - ()
Sea Level Pressure  
Sea Level Pressure 29.83 in    
Wind  
Wind Speed 8 mph (West)    
Max Wind Speed 16 mph    
Max Gust Speed 24 mph    
Visibility 9 miles    
Events Snow    
Averages and records for this station are not official NWS values.
T = Trace of Precipitation, MM = Missing Value Source: NWS Daily Summary

Daily Weather History Graph

Daily Weather History Graph

Search for Another Location

Airport:

Trip Planner

Search our weather history database for the weather conditions in past years. The results will help you decide how hot, cold, wet, or windy it might be!

Date:

Astronomy

Nov. 25, 2012 Rise Set
Actual Time 7:08 AM CST 4:18 PM CST
Civil Twilight 6:35 AM CST 4:51 PM CST
Nautical Twilight 5:59 AM CST 5:27 PM CST
Astronomical Twilight 5:23 AM CST 6:02 PM CST
Moon 2:39 PM CST (11/25) 4:16 AM CST (11/25)
Length of Visible Light 10h 15m
Length of Day
9h 10m
Waxing Gibbous, 93% of the Moon is Illuminated
Nov 25
Waxing Gibbous
Nov 28
Full
Dec 6
Last Quarter
Dec 13
New
Dec 19
First Quarter

Hourly Weather History & Observations

Time (CST) Temp. Windchill Dew Point Humidity Pressure Visibility Wind Dir Wind Speed Gust Speed Precip Events Conditions
12:15 AM 21.0 °F 13.4 °F 19.4 °F 93% 29.81 in 0.8 mi SSE 5.8 mph - 0.01 in Snow Snow
12:35 AM 21.0 °F 12.4 °F 19.4 °F 93% 29.79 in 1.2 mi SSE 6.9 mph - 0.02 in Snow Light Snow
12:55 AM 21.0 °F 10.6 °F 19.4 °F 93% 29.78 in 1.8 mi South 9.2 mph - 0.02 in Snow Light Snow
1:15 AM 21.2 °F 13.6 °F 19.4 °F 93% 29.77 in 2.5 mi South 5.8 mph - N/A Snow Light Snow
1:35 AM 21.2 °F 13.6 °F 19.4 °F 93% 29.76 in 2.5 mi South 5.8 mph - N/A Snow Light Snow
1:55 AM 21.0 °F 13.4 °F 19.4 °F 93% 29.77 in 10.0 mi SSW 5.8 mph - N/A   Overcast
2:15 AM 21.2 °F 14.9 °F 19.4 °F 93% 29.76 in 10.0 mi SSW 4.6 mph - N/A   Overcast
2:35 AM 21.2 °F 13.6 °F 19.6 °F 93% 29.76 in 10.0 mi SSW 5.8 mph - N/A   Overcast
2:55 AM 21.6 °F 13.0 °F 19.9 °F 93% 29.75 in 10.0 mi SW 6.9 mph - N/A   Overcast
3:15 AM 21.7 °F 15.5 °F 20.1 °F 93% 29.75 in 10.0 mi SW 4.6 mph - N/A   Overcast
3:35 AM 21.9 °F 14.5 °F 20.3 °F 93% 29.75 in 10.0 mi WSW 5.8 mph - N/A   Overcast
3:55 AM 22.1 °F 14.7 °F 20.7 °F 94% 29.74 in 10.0 mi WSW 5.8 mph - N/A   Overcast
4:15 AM 22.1 °F 17.4 °F 20.8 °F 95% 29.74 in 10.0 mi WSW 3.5 mph - N/A   Overcast
4:35 AM 22.1 °F 15.9 °F 21.0 °F 96% 29.74 in 10.0 mi West 4.6 mph - N/A   Overcast
4:55 AM 22.3 °F 16.1 °F 21.0 °F 95% 29.74 in 10.0 mi West 4.6 mph - N/A   Overcast
5:15 AM 22.5 °F 16.3 °F 21.0 °F 94% 29.74 in 10.0 mi West 4.6 mph - N/A   Overcast
5:35 AM 22.6 °F 16.5 °F 21.2 °F 94% 29.74 in 10.0 mi West 4.6 mph - N/A   Overcast
5:55 AM 22.6 °F 14.3 °F 21.0 °F 93% 29.75 in 10.0 mi West 6.9 mph - N/A   Overcast
6:15 AM 22.8 °F 15.5 °F 21.0 °F 93% 29.74 in 10.0 mi West 5.8 mph - N/A   Overcast
6:35 AM 23.0 °F 13.9 °F 20.8 °F 91% 29.75 in 10.0 mi West 8.1 mph - N/A   Overcast
6:55 AM 23.0 °F 13.9 °F 20.7 °F 91% 29.76 in 10.0 mi West 8.1 mph - N/A   Overcast
7:15 AM 23.5 °F 13.7 °F 20.3 °F 87% 29.75 in 10.0 mi WNW 9.2 mph - N/A   Overcast
7:35 AM 23.5 °F 14.5 °F 20.3 °F 87% 29.76 in 10.0 mi WNW 8.1 mph - N/A   Overcast
7:55 AM 23.7 °F 14.0 °F 20.3 °F 87% 29.76 in 10.0 mi WNW 9.2 mph - N/A   Overcast
8:15 AM 23.9 °F 13.5 °F 20.3 °F 86% 29.77 in 10.0 mi WNW 10.4 mph - N/A   Overcast
8:35 AM 23.9 °F 12.3 °F 20.5 °F 87% 29.77 in 10.0 mi WNW 12.7 mph - N/A   Overcast
8:55 AM 24.4 °F 14.2 °F 20.5 °F 85% 29.78 in 10.0 mi WNW 10.4 mph - N/A   Overcast
9:15 AM 24.6 °F 14.4 °F 20.3 °F 84% 29.78 in 10.0 mi WNW 10.4 mph - N/A   Overcast
9:35 AM 25.0 °F 13.1 °F 20.7 °F 84% 29.79 in 10.0 mi WNW 13.8 mph - N/A   Overcast
9:55 AM 25.5 °F 14.9 °F 20.3 °F 81% 29.79 in 10.0 mi West 11.5 mph 18.4 mph N/A   Overcast
10:15 AM 26.2 °F 17.1 °F 20.5 °F 79% 29.80 in 10.0 mi WNW 9.2 mph - N/A   Overcast
10:35 AM 26.6 °F 16.2 °F 20.3 °F 77% 29.80 in 10.0 mi WNW 11.5 mph - N/A   Overcast
10:55 AM 27.1 °F 18.9 °F 20.5 °F 76% 29.80 in 10.0 mi WNW 8.1 mph - N/A   Overcast
11:15 AM 27.3 °F 17.1 °F 20.3 °F 75% 29.80 in 10.0 mi WNW 11.5 mph 18.4 mph N/A   Overcast
11:35 AM 27.3 °F 16.1 °F 19.9 °F 74% 29.80 in 10.0 mi WNW 13.8 mph 20.7 mph N/A   Overcast
11:55 AM 27.1 °F 15.4 °F 20.1 °F 75% 29.80 in 10.0 mi WNW 15.0 mph 18.4 mph N/A   Overcast
12:15 PM 27.1 °F 15.9 °F 19.8 °F 74% 29.81 in 10.0 mi NW 13.8 mph - N/A   Overcast
12:35 PM 27.3 °F 16.6 °F 19.9 °F 74% 29.81 in 10.0 mi NW 12.7 mph 19.6 mph N/A   Overcast
12:55 PM 26.6 °F 14.7 °F 19.4 °F 74% 29.81 in 10.0 mi WNW 15.0 mph - N/A   Overcast
1:15 PM 26.4 °F 15.5 °F 19.0 °F 74% 29.81 in 10.0 mi WNW 12.7 mph - N/A   Overcast
1:35 PM 26.4 °F 16.6 °F 19.4 °F 75% 29.82 in 10.0 mi NW 10.4 mph 17.3 mph N/A   Overcast
1:55 PM 25.9 °F 13.3 °F 19.2 °F 76% 29.83 in 10.0 mi West 16.1 mph 23.0 mph N/A   Overcast
2:15 PM 25.5 °F 14.9 °F 19.0 °F 76% 29.83 in 10.0 mi WNW 11.5 mph - N/A   Overcast
2:35 PM 25.3 °F 14.1 °F 18.5 °F 75% 29.84 in 10.0 mi WNW 12.7 mph - N/A   Overcast
2:55 PM 25.0 °F 12.2 °F 18.5 °F 76% 29.84 in 10.0 mi WNW 16.1 mph 21.9 mph N/A   Overcast
3:15 PM 24.8 °F 12.4 °F 18.5 °F 77% 29.85 in 10.0 mi WNW 15.0 mph 24.2 mph N/A   Overcast
3:35 PM 24.8 °F 12.4 °F 18.5 °F 77% 29.86 in 10.0 mi WNW 15.0 mph - N/A   Overcast
3:55 PM 24.6 °F 13.2 °F 18.9 °F 79% 29.86 in 10.0 mi WNW 12.7 mph - N/A   Overcast
4:15 PM 24.4 °F 13.5 °F 19.0 °F 80% 29.86 in 10.0 mi WNW 11.5 mph - N/A Snow Light Snow
4:35 PM 24.4 °F 13.5 °F 19.4 °F 81% 29.87 in 10.0 mi WNW 11.5 mph - N/A Snow Light Snow
4:55 PM 24.3 °F 14.6 °F 19.9 °F 84% 29.87 in 10.0 mi NW 9.2 mph - N/A Snow Light Snow
5:15 PM 23.9 °F 11.7 °F 19.2 °F 82% 29.88 in 10.0 mi NW 13.8 mph 19.6 mph N/A   Overcast
5:35 PM 23.7 °F 13.3 °F 17.8 °F 78% 29.90 in 10.0 mi NW 10.4 mph 16.1 mph N/A   Overcast
5:55 PM 23.5 °F 12.4 °F 17.8 °F 79% 29.90 in 10.0 mi NW 11.5 mph - N/A   Overcast
6:15 PM 23.0 °F 11.1 °F 18.0 °F 81% 29.91 in 10.0 mi WNW 12.7 mph 17.3 mph N/A Snow Light Snow
6:35 PM 22.6 °F 11.3 °F 14.9 °F 72% 29.92 in 10.0 mi NW 11.5 mph - N/A   Overcast
6:55 PM 22.3 °F 11.5 °F 13.6 °F 69% 29.92 in 10.0 mi WNW 10.4 mph 18.4 mph N/A   Overcast
7:15 PM 21.6 °F 11.3 °F 12.0 °F 67% 29.92 in 10.0 mi NW 9.2 mph - N/A   Mostly Cloudy
7:35 PM 19.4 °F 9.5 °F 10.8 °F 69% 29.93 in 10.0 mi WNW 8.1 mph - N/A   Scattered Clouds
7:55 PM 18.0 °F 9.8 °F 10.2 °F 72% 29.93 in 10.0 mi WNW 5.8 mph - N/A   Mostly Cloudy
8:15 PM 18.5 °F 10.4 °F 11.7 °F 75% 29.95 in 10.0 mi West 5.8 mph - N/A   Overcast
8:35 PM 19.2 °F 11.3 °F 12.7 °F 76% 29.95 in 10.0 mi West 5.8 mph - N/A   Overcast
8:55 PM 19.9 °F 10.1 °F 13.5 °F 76% 29.95 in 10.0 mi West 8.1 mph - N/A   Overcast
9:15 PM 20.3 °F 11.5 °F 14.0 °F 77% 29.95 in 10.0 mi West 6.9 mph - N/A   Overcast
9:35 PM 20.3 °F 11.5 °F 14.5 °F 78% 29.96 in 10.0 mi West 6.9 mph - N/A Snow Light Snow
9:55 PM 20.7 °F 11.0 °F 15.3 °F 80% 29.97 in 10.0 mi WNW 8.1 mph - N/A Snow Light Snow
10:15 PM 21.0 °F 10.6 °F 16.2 °F 81% 29.98 in 5.0 mi NW 9.2 mph - N/A Snow Light Snow
10:35 PM 21.0 °F 14.6 °F 16.7 °F 83% 29.98 in 7.0 mi WNW 4.6 mph - N/A Snow Light Snow
10:55 PM 20.8 °F 16.0 °F 16.9 °F 85% 29.98 in 7.0 mi WNW 3.5 mph - N/A Snow Light Snow
11:15 PM 20.8 °F 16.0 °F 16.7 °F 84% 30.00 in 7.0 mi West 3.5 mph - N/A Snow Light Snow
11:35 PM 20.3 °F - 16.7 °F 86% 30.01 in 5.0 mi Calm Calm - N/A Snow Light Snow
11:55 PM 20.3 °F 15.4 °F 16.5 °F 85% 30.01 in 10.0 mi West 3.5 mph - N/A Snow Light Snow